Home > Weather > Innsbruck > Past weeks

Flag for Austria Past Weather in Innsbruck, Tyrol, Austria — Yesterday and Last 2 Weeks

Now
66 °F

Broken clouds.


Feels Like: 66 °F
Forecast: 60 / 70 °F
Wind: 3 mph from Northeast

Location: Innsbruck-Flughafen

Current Time: Jun 25, 2016 at 9:45:14 PM

Latest Report: Jun 25, 2016 at 8:50 PM


Visibility: N/A

Pressure: 30.01 "Hg (28.07 "Hg at 570m altitude)

Humidity: 88%

Dew Point: 63 °F

Location of InnsbruckLocation

Past Weather in Innsbruck — Graph

°F

Innsbruck Temperature Yesterday

Maximum temperature yesterday: 93 °F (at 2:50 PM)
Minimum temperature yesterday: 63 °F (at 4:20 AM)
Average temperature yesterday: 77 °F

High & Low Weather Summary for the Past Weeks

 TemperatureHumidityPressure
High93 °F (Jun 24, 2:50 PM)100% (Jun 12, 12:20 AM)30.33 "Hg (Jun 12, 12:20 AM)
Low50 °F (Jun 17, 5:50 AM)20% (Jun 24, 2:50 PM)29.50 "Hg (Jun 16, 5:50 PM)
Average64 °F74%29.96 "Hg
* Reported Jun 10 7:20 PM — Jun 25 7:50 PM, Innsbruck, Weather by CustomWeather, © 2016

Note: Actual official high and low records may vary slightly from our data, if they occured in-between our weather recording intervals... More about our weather records

Advertising

Innsbruck Weather History for the Previous 24 Hours

Scroll right to see more
 ConditionsComfort  
Time TempWeatherWind HumidityBarometerVisibility
7:50 PM
Sat, Jun 25
68 °FPartly sunny.5 mph83%29.98 "HgN/A
7:20 PM68 °FPartly sunny.2 mph83%29.95 "HgN/A
6:50 PM66 °FBroken clouds.3 mph88%29.95 "HgN/A
6:20 PM66 °FSprinkles. Broken clouds.3 mph83%29.95 "HgN/A
5:50 PM66 °FBroken clouds.6 mph83%29.98 "HgN/A
5:20 PM66 °FPartly sunny.9 mph78%29.92 "HgN/A
4:50 PM73 °FThunderstorms. Broken clouds.23 mph53%29.92 "HgN/A
4:20 PM81 °FBroken clouds.32 mph39%29.83 "HgN/A
3:50 PM86 °FPartly sunny.13 mph46%29.80 "HgN/A
3:20 PM86 °FPartly sunny.13 mph46%29.80 "HgN/A
2:50 PM86 °FPartly sunny.15 mph46%29.83 "HgN/A
2:20 PM84 °FPartly sunny.15 mph51%29.83 "HgN/A
1:50 PM82 °FPartly sunny.9 mph51%29.86 "HgN/A
1:20 PM82 °FScattered clouds.9 mph51%29.89 "HgN/A
12:50 PM81 °FScattered clouds.7 mph54%29.89 "HgN/A
12:20 PM81 °FScattered clouds.5 mph54%29.92 "HgN/A
11:50 AM81 °FScattered clouds.3 mph54%29.92 "HgN/A
11:20 AM77 °FScattered clouds.3 mph61%29.92 "HgN/A
10:50 AM75 °FPassing clouds.3 mph65%29.95 "HgN/A
10:20 AM73 °FPassing clouds.8 mph65%29.95 "HgN/A
9:50 AM72 °FPassing clouds.10 mph73%29.98 "HgN/A
9:20 AM70 °FPassing clouds.14 mph73%29.98 "HgN/A
8:50 AM70 °FPassing clouds.13 mph73%29.98 "HgN/A
8:20 AM68 °FScattered clouds.14 mph78%29.98 "HgN/A
7:50 AM66 °FScattered clouds.12 mph83%29.98 "HgN/A
7:20 AM64 °FScattered clouds.9 mph88%30.01 "HgN/A
6:50 AM63 °FPartly sunny.6 mph94%30.01 "HgN/A
6:20 AM63 °FScattered clouds.5 mph94%30.01 "HgN/A
5:50 AM61 °FPassing clouds.3 mph94%30.01 "HgN/A
5:20 AM61 °FCool.5 mph94%30.01 "HgN/A
4:50 AM63 °FMild.2 mph94%30.01 "HgN/A
4:20 AM63 °FMild.5 mph94%30.01 "HgN/A
3:50 AM63 °FPassing clouds.3 mph94%30.04 "HgN/A
3:20 AM64 °FPassing clouds.5 mph88%30.04 "HgN/A
2:50 AM64 °FMild.6 mph94%30.04 "HgN/A
2:20 AM64 °FMild.7 mph94%30.04 "HgN/A
1:50 AM66 °FStrong thunderstorms. Overcast.5 mph88%30.07 "HgN/A
1:20 AM68 °FThundershowers. Overcast.5 mph78%30.07 "HgN/A
12:50 AM68 °FMild.10 mph78%30.07 "HgN/A
12:20 AM70 °FSprinkles. Overcast.20 mph69%30.07 "HgN/A
11:50 PM
Fri, Jun 24
70 °FSprinkles. Overcast.20 mph73%30.04 "HgN/A
11:20 PM70 °FThunderstorms. Overcast.6 mph88%30.04 "HgN/A
10:50 PM72 °FPartly cloudy.2 mph83%30.01 "HgN/A
10:20 PM73 °FThunderstorms. Passing clouds.7 mph78%30.01 "HgN/A
9:50 PM79 °FSprinkles. Partly sunny.3 mph58%29.98 "HgN/A
9:20 PM77 °FScattered clouds.5 mph61%29.98 "HgN/A
Weather by CustomWeather, © 2016

See weather overviewHow to use our weather pages